TimeEST,TemperatureF,Dew PointF,Humidity,Sea Level PressureIn,VisibilityMPH,Wind Direction,Wind SpeedMPH,Gust SpeedMPH,PrecipitationIn,Events,Conditions,WindDirDegrees,DateUTC
12:15 AM,48.2,46.4,93,30.02,10.0,West,11.5,-,N/A,,Clear,260,2013-02-20 05:15:00
12:35 AM,48.2,46.4,93,30.02,10.0,West,9.2,-,N/A,,Clear,260,2013-02-20 05:35:00
12:55 AM,48.2,44.6,87,30.02,10.0,West,10.4,-,N/A,,Clear,270,2013-02-20 05:55:00
1:15 AM,48.2,44.6,87,30.02,10.0,West,11.5,-,N/A,,Clear,260,2013-02-20 06:15:00
1:35 AM,46.4,42.8,87,30.03,10.0,West,9.2,-,N/A,,Clear,280,2013-02-20 06:35:00
1:55 AM,46.4,42.8,87,30.03,10.0,West,9.2,16.1,N/A,,Clear,280,2013-02-20 06:55:00
2:15 AM,46.4,41.0,81,30.04,10.0,West,10.4,-,N/A,,Clear,280,2013-02-20 07:15:00
2:35 AM,44.6,41.0,87,30.04,10.0,WNW,9.2,-,N/A,,Clear,290,2013-02-20 07:35:00
2:55 AM,44.6,39.2,81,30.03,10.0,WNW,8.1,-,N/A,,Clear,300,2013-02-20 07:55:00
3:15 AM,44.6,39.2,81,30.04,10.0,WNW,9.2,-,N/A,,Clear,290,2013-02-20 08:15:00
3:35 AM,42.8,37.4,81,30.04,10.0,WNW,8.1,-,N/A,,Clear,290,2013-02-20 08:35:00
3:55 AM,42.8,37.4,81,30.05,10.0,WNW,6.9,-,N/A,,Clear,300,2013-02-20 08:55:00
4:15 AM,41.0,35.6,81,30.05,10.0,WNW,8.1,-,N/A,,Clear,290,2013-02-20 09:15:00
4:35 AM,41.0,35.6,81,30.05,10.0,WNW,6.9,-,N/A,,Clear,290,2013-02-20 09:35:00
4:55 AM,39.2,35.6,87,30.06,10.0,WNW,6.9,-,N/A,,Clear,290,2013-02-20 09:55:00
5:15 AM,39.2,35.6,87,30.07,10.0,WNW,6.9,-,N/A,,Clear,290,2013-02-20 10:15:00
5:35 AM,39.2,33.8,81,30.08,10.0,WNW,6.9,-,N/A,,Clear,300,2013-02-20 10:35:00
5:55 AM,39.2,33.8,81,30.08,10.0,WNW,5.8,-,N/A,,Clear,300,2013-02-20 10:55:00
6:50 AM,37.4,33.8,87,30.10,10.0,WNW,8.1,-,N/A,,Clear,300,2013-02-20 11:50:00
7:50 AM,35.6,33.8,93,30.13,10.0,NW,8.1,-,N/A,,Clear,320,2013-02-20 12:50:00
8:45 AM,42.8,35.6,76,30.15,10.0,NNW,8.1,-,N/A,,Clear,330,2013-02-20 13:45:00
10:45 AM,48.2,24.8,40,30.14,10.0,NNW,11.5,-,N/A,,Clear,340,2013-02-20 15:45:00
11:50 AM,51.8,23.0,33,30.13,10.0,North,8.1,-,N/A,,Clear,10,2013-02-20 16:50:00
12:45 PM,53.6,26.6,35,30.13,10.0,South,9.2,-,N/A,,Clear,180,2013-02-20 17:45:00
1:45 PM,51.8,30.2,44,30.07,10.0,South,12.7,-,N/A,,Clear,180,2013-02-20 18:45:00
2:50 PM,53.6,28.4,38,30.06,10.0,South,15.0,-,N/A,,Clear,180,2013-02-20 19:50:00
3:50 PM,51.8,28.4,41,30.05,10.0,South,15.0,-,N/A,,Clear,180,2013-02-20 20:50:00
5:45 PM,50.0,30.2,47,30.07,10.0,SW,11.5,-,N/A,,Clear,230,2013-02-20 22:45:00
6:50 PM,48.2,33.8,58,30.10,10.0,SW,6.9,-,N/A,,Clear,230,2013-02-20 23:50:00
7:45 PM,48.2,33.8,58,30.11,10.0,SW,8.1,-,N/A,,Clear,230,2013-02-21 00:45:00
8:45 PM,48.2,33.8,58,30.10,10.0,Calm,Calm,-,N/A,,Clear,0,2013-02-21 01:45:00
11:15 PM,46.4,33.8,62,30.12,10.0,Calm,Calm,-,N/A,,Overcast,0,2013-02-21 04:15:00
11:35 PM,44.6,33.8,66,30.12,10.0,Calm,Calm,-,N/A,,Scattered Clouds,0,2013-02-21 04:35:00
11:55 PM,41.0,33.8,76,30.12,10.0,Calm,Calm,-,N/A,,Clear,0,2013-02-21 04:55:00